sat.trackr.live / text

‹ back to catalog

STARLINK-35337

NORAD 65831 · 2025-221J

PAYLOAD ACTIVE UNKNOWN

§ Identity

Operator
Country
US
Launch date
2025-09-29
Launch site
AFWTR
Launch vehicle
Mass (kg)
RCS (m²)

Purposes: comms

External: N2YO · Heavens-Above · Gunter

§ Orbital elements

Epoch: 2026-05-25T02:53:44.678400Z

Period
93.85 min
Inclination
53.1607°
Eccentricity
0.0000996
Mean motion
15.34398048 rev/d
Perigee alt
462.0 km
Apogee alt
463.4 km
Semi-major
6,840.8 km
B*
8.1173e-4
RAAN
92.7421°
Arg perigee
73.7391°
Mean anomaly
286.3721°
Rev number
3,779

§ Raw data

STARLINK-353371 65831U 25221J   26145.12065600  .00027147  00000+0  81173-3 0  99962 65831  53.1607  92.7421 0000996  73.7391 286.3721 15.34398048 37796

JSON: /api/v1/satellites/65831 · /tle

For live sub-satellite position, see the globe view (requires WebGL).

§ Visibility from observer

Set your observer location to see the next 7 days of passes ≥ 10°. The values pass through the URL so the page stays shareable.

No JS? Fill the form by hand. The geolocation button needs JavaScript.